Year,Month,Day,Hour,Minute,Value (Times are PST for temperature in C)
2010,08,06,00,00,17.10
2010,08,06,00,01,17.10
2010,08,06,00,02,17.10
2010,08,06,00,03,17.10
2010,08,06,00,04,17.00
2010,08,06,00,05,17.00
2010,08,06,00,06,17.00
2010,08,06,00,07,16.90
2010,08,06,00,08,16.90
2010,08,06,00,09,16.90
2010,08,06,00,10,16.80
2010,08,06,00,11,16.80
2010,08,06,00,12,16.70
2010,08,06,00,13,16.70
2010,08,06,00,14,16.70
2010,08,06,00,15,16.70
2010,08,06,00,16,16.70
2010,08,06,00,17,16.70
2010,08,06,00,18,16.70
2010,08,06,00,19,16.70
2010,08,06,00,20,16.70
2010,08,06,00,21,16.60
2010,08,06,00,22,16.60
2010,08,06,00,23,16.60
2010,08,06,00,24,16.60
2010,08,06,00,25,16.60
2010,08,06,00,26,16.60
2010,08,06,00,27,16.60
2010,08,06,00,28,16.60
2010,08,06,00,29,16.60
2010,08,06,00,30,16.60
2010,08,06,00,31,16.60
2010,08,06,00,32,16.60
2010,08,06,00,33,16.70
2010,08,06,00,34,16.70
2010,08,06,00,35,16.60
2010,08,06,00,36,16.60
2010,08,06,00,37,16.60
2010,08,06,00,38,16.60
2010,08,06,00,39,16.60
2010,08,06,00,40,16.60
2010,08,06,00,41,16.60
2010,08,06,00,42,16.50
2010,08,06,00,43,16.40
2010,08,06,00,44,16.40
2010,08,06,00,45,16.40
2010,08,06,00,46,16.40
2010,08,06,00,47,16.40
2010,08,06,00,48,16.30
2010,08,06,00,49,16.30
2010,08,06,00,50,16.30
2010,08,06,00,51,16.30
2010,08,06,00,52,16.30
2010,08,06,00,53,16.20
2010,08,06,00,54,16.20
2010,08,06,00,55,16.20
2010,08,06,00,56,16.20
2010,08,06,00,57,16.10
2010,08,06,00,58,16.10
2010,08,06,00,59,16.10
2010,08,06,01,00,16.10
2010,08,06,01,01,16.10
2010,08,06,01,02,16.10
2010,08,06,01,03,16.10
2010,08,06,01,04,16.10
2010,08,06,01,05,16.10
2010,08,06,01,06,16.10
2010,08,06,01,07,16.10
2010,08,06,01,08,16.10
2010,08,06,01,09,16.10
2010,08,06,01,10,16.10
2010,08,06,01,11,16.10
2010,08,06,01,12,16.10
2010,08,06,01,13,16.10
2010,08,06,01,14,16.10
2010,08,06,01,15,16.10
2010,08,06,01,16,16.00
2010,08,06,01,17,15.90
2010,08,06,01,18,15.90
2010,08,06,01,19,15.90
2010,08,06,01,20,15.90
2010,08,06,01,21,15.90
2010,08,06,01,22,15.80
2010,08,06,01,23,15.80
2010,08,06,01,24,15.80
2010,08,06,01,25,15.80
2010,08,06,01,26,15.80
2010,08,06,01,27,15.80
2010,08,06,01,28,15.80
2010,08,06,01,29,15.70
2010,08,06,01,30,15.70
2010,08,06,01,31,15.70
2010,08,06,01,32,15.70
2010,08,06,01,33,15.70
2010,08,06,01,34,15.70
2010,08,06,01,35,15.70
2010,08,06,01,36,15.70
2010,08,06,01,37,15.70
2010,08,06,01,38,15.70
2010,08,06,01,39,15.70
2010,08,06,01,40,15.80
2010,08,06,01,41,15.80
2010,08,06,01,42,15.80
2010,08,06,01,43,15.80
2010,08,06,01,44,15.80
2010,08,06,01,45,15.80
2010,08,06,01,46,15.80
2010,08,06,01,47,15.80
2010,08,06,01,48,15.80
2010,08,06,01,49,15.80
2010,08,06,01,50,15.80
2010,08,06,01,51,15.80
2010,08,06,01,52,15.80
2010,08,06,01,53,15.80
2010,08,06,01,54,15.80
2010,08,06,01,55,15.80
2010,08,06,01,56,15.80
2010,08,06,01,57,15.80
2010,08,06,01,58,15.80
2010,08,06,01,59,15.80
2010,08,06,02,00,15.80
2010,08,06,02,01,15.80
2010,08,06,02,02,15.80
2010,08,06,02,03,15.80
2010,08,06,02,04,15.80
2010,08,06,02,05,15.80
2010,08,06,02,06,15.80
2010,08,06,02,07,15.80
2010,08,06,02,08,15.80
2010,08,06,02,09,15.80
2010,08,06,02,10,15.80
2010,08,06,02,11,15.70
2010,08,06,02,12,15.70
2010,08,06,02,13,15.60
2010,08,06,02,14,15.60
2010,08,06,02,15,15.50
2010,08,06,02,16,15.50
2010,08,06,02,17,15.50
2010,08,06,02,18,15.40
2010,08,06,02,19,15.40
2010,08,06,02,20,15.30
2010,08,06,02,21,15.30
2010,08,06,02,22,15.30
2010,08,06,02,23,15.30
2010,08,06,02,24,15.30
2010,08,06,02,25,15.30
2010,08,06,02,26,15.20
2010,08,06,02,27,15.20
2010,08,06,02,28,15.20
2010,08,06,02,29,15.20
2010,08,06,02,30,15.20
2010,08,06,02,31,15.30
2010,08,06,02,32,15.30
2010,08,06,02,33,15.30
2010,08,06,02,34,15.30
2010,08,06,02,35,15.30
2010,08,06,02,36,15.30
2010,08,06,02,37,15.30
2010,08,06,02,38,15.30
2010,08,06,02,39,15.30
2010,08,06,02,40,15.30
2010,08,06,02,41,15.30
2010,08,06,02,42,15.30
2010,08,06,02,43,15.30
2010,08,06,02,44,15.30
2010,08,06,02,45,15.30
2010,08,06,02,46,15.30
2010,08,06,02,47,15.40
2010,08,06,02,48,15.40
2010,08,06,02,49,15.40
2010,08,06,02,50,15.40
2010,08,06,02,51,15.40
2010,08,06,02,52,15.30
2010,08,06,02,53,15.30
2010,08,06,02,54,15.30
2010,08,06,02,55,15.30
2010,08,06,02,56,15.30
2010,08,06,02,57,15.30
2010,08,06,02,58,15.30
2010,08,06,02,59,15.30
2010,08,06,03,00,15.30
2010,08,06,03,01,15.30
2010,08,06,03,02,15.30
2010,08,06,03,03,15.20
2010,08,06,03,04,15.20
2010,08,06,03,05,15.20
2010,08,06,03,06,15.10
2010,08,06,03,07,15.10
2010,08,06,03,08,15.10
2010,08,06,03,09,15.10
2010,08,06,03,10,15.00
2010,08,06,03,11,15.00
2010,08,06,03,12,15.00
2010,08,06,03,13,15.00
2010,08,06,03,14,14.90
2010,08,06,03,15,14.90
2010,08,06,03,16,14.90
2010,08,06,03,17,14.90
2010,08,06,03,18,14.80
2010,08,06,03,19,14.80
2010,08,06,03,20,14.80
2010,08,06,03,21,14.80
2010,08,06,03,22,14.80
2010,08,06,03,23,14.80
2010,08,06,03,24,14.80
2010,08,06,03,25,14.80
2010,08,06,03,26,14.70
2010,08,06,03,27,14.70
2010,08,06,03,28,14.70
2010,08,06,03,29,14.70
2010,08,06,03,30,14.70
2010,08,06,03,31,14.70
2010,08,06,03,32,14.70
2010,08,06,03,33,14.60
2010,08,06,03,34,14.60
2010,08,06,03,35,14.60
2010,08,06,03,36,14.60
2010,08,06,03,37,14.60
2010,08,06,03,38,14.50
2010,08,06,03,39,14.50
2010,08,06,03,40,14.50
2010,08,06,03,41,14.50
2010,08,06,03,42,14.50
2010,08,06,03,43,14.50
2010,08,06,03,44,14.40
2010,08,06,03,45,14.40
2010,08,06,03,46,14.40
2010,08,06,03,47,14.40
2010,08,06,03,48,14.40
2010,08,06,03,49,14.40
2010,08,06,03,50,14.30
2010,08,06,03,51,14.30
2010,08,06,03,52,14.30
2010,08,06,03,53,14.30
2010,08,06,03,54,14.30
2010,08,06,03,55,14.30
2010,08,06,03,56,14.30
2010,08,06,03,57,14.30
2010,08,06,03,58,14.30
2010,08,06,03,59,14.30
2010,08,06,04,00,14.30
2010,08,06,04,01,14.30
2010,08,06,04,02,14.30
2010,08,06,04,03,14.30
2010,08,06,04,04,14.30
2010,08,06,04,05,14.30
2010,08,06,04,06,14.40
2010,08,06,04,07,14.40
2010,08,06,04,08,14.40
2010,08,06,04,09,14.40
2010,08,06,04,10,14.40
2010,08,06,04,11,14.40
2010,08,06,04,12,14.50
2010,08,06,04,13,14.50
2010,08,06,04,14,14.50
2010,08,06,04,15,14.50
2010,08,06,04,16,14.60
2010,08,06,04,17,14.60
2010,08,06,04,18,14.60
2010,08,06,04,19,14.60
2010,08,06,04,20,14.60
2010,08,06,04,21,14.60
2010,08,06,04,22,14.60
2010,08,06,04,23,14.60
2010,08,06,04,24,14.60
2010,08,06,04,25,14.60
2010,08,06,04,26,14.60
2010,08,06,04,27,14.60
2010,08,06,04,28,14.60
2010,08,06,04,29,14.60
2010,08,06,04,30,14.60
2010,08,06,04,31,14.60
2010,08,06,04,32,14.60
2010,08,06,04,33,14.60
2010,08,06,04,34,14.60
2010,08,06,04,35,14.60
2010,08,06,04,36,14.60
2010,08,06,04,37,14.70
2010,08,06,04,38,14.70
2010,08,06,04,39,14.70
2010,08,06,04,40,14.70
2010,08,06,04,41,14.70
2010,08,06,04,42,14.70
2010,08,06,04,43,14.70
2010,08,06,04,44,14.70
2010,08,06,04,45,14.70
2010,08,06,04,46,14.70
2010,08,06,04,47,14.70
2010,08,06,04,48,14.70
2010,08,06,04,49,14.70
2010,08,06,04,50,14.70
2010,08,06,04,51,14.70
2010,08,06,04,52,14.70
2010,08,06,04,53,14.70
2010,08,06,04,54,14.70
2010,08,06,04,55,14.70
2010,08,06,04,56,14.80
2010,08,06,04,57,14.80
2010,08,06,04,58,14.80
2010,08,06,04,59,14.80
2010,08,06,05,00,14.80
2010,08,06,05,01,14.80
2010,08,06,05,02,14.80
2010,08,06,05,03,14.80
2010,08,06,05,04,14.80
2010,08,06,05,05,14.80
2010,08,06,05,06,14.80
2010,08,06,05,07,14.80
2010,08,06,05,08,14.80
2010,08,06,05,09,14.80
2010,08,06,05,10,14.80
2010,08,06,05,11,14.80
2010,08,06,05,12,14.80
2010,08,06,05,13,14.80
2010,08,06,05,14,14.80
2010,08,06,05,15,14.80
2010,08,06,05,16,14.80
2010,08,06,05,17,14.80
2010,08,06,05,18,14.80
2010,08,06,05,19,14.80
2010,08,06,05,20,14.80
2010,08,06,05,21,14.80
2010,08,06,05,22,14.80
2010,08,06,05,23,14.70
2010,08,06,05,24,14.80
2010,08,06,05,25,14.80
2010,08,06,05,26,14.70
2010,08,06,05,27,14.70
2010,08,06,05,28,14.70
2010,08,06,05,29,14.70
2010,08,06,05,30,14.70
2010,08,06,05,31,14.70
2010,08,06,05,32,14.70
2010,08,06,05,33,14.70
2010,08,06,05,34,14.70
2010,08,06,05,35,14.70
2010,08,06,05,36,14.70
2010,08,06,05,37,14.70
2010,08,06,05,38,14.70
2010,08,06,05,39,14.70
2010,08,06,05,40,14.70
2010,08,06,05,41,14.70
2010,08,06,05,42,14.70
2010,08,06,05,43,14.70
2010,08,06,05,44,14.70
2010,08,06,05,45,14.70
2010,08,06,05,46,14.70
2010,08,06,05,47,14.70
2010,08,06,05,48,14.70
2010,08,06,05,49,14.70
2010,08,06,05,50,14.70
2010,08,06,05,51,14.60
2010,08,06,05,52,14.60
2010,08,06,05,53,14.60
2010,08,06,05,54,14.60
2010,08,06,05,55,14.60
2010,08,06,05,56,14.60
2010,08,06,05,57,14.50
2010,08,06,05,58,14.50
2010,08,06,05,59,14.50
2010,08,06,06,00,14.50
2010,08,06,06,01,14.40
2010,08,06,06,02,14.40
2010,08,06,06,03,14.40
2010,08,06,06,04,14.30
2010,08,06,06,05,14.30
2010,08,06,06,06,14.30
2010,08,06,06,07,14.20
2010,08,06,06,08,14.20
2010,08,06,06,09,14.20
2010,08,06,06,10,14.20
2010,08,06,06,11,14.20
2010,08,06,06,12,14.20
2010,08,06,06,13,14.20
2010,08,06,06,14,14.20
2010,08,06,06,15,14.20
2010,08,06,06,16,14.20
2010,08,06,06,17,14.20
2010,08,06,06,18,14.20
2010,08,06,06,19,14.20
2010,08,06,06,20,14.20
2010,08,06,06,21,14.20
2010,08,06,06,22,14.20
2010,08,06,06,23,14.20
2010,08,06,06,24,14.20
2010,08,06,06,25,14.20
2010,08,06,06,26,14.20
2010,08,06,06,27,14.20
2010,08,06,06,28,14.20
2010,08,06,06,29,14.30
2010,08,06,06,30,14.30
2010,08,06,06,31,14.30
2010,08,06,06,32,14.30
2010,08,06,06,33,14.40
2010,08,06,06,34,14.40
2010,08,06,06,35,14.40
2010,08,06,06,36,14.40
2010,08,06,06,37,14.50
2010,08,06,06,38,14.50
2010,08,06,06,39,14.60
2010,08,06,06,40,14.60
2010,08,06,06,41,14.60
2010,08,06,06,42,14.60
2010,08,06,06,43,14.70
2010,08,06,06,44,14.70
2010,08,06,06,45,14.70
2010,08,06,06,46,14.70
2010,08,06,06,47,14.80
2010,08,06,06,48,14.80
2010,08,06,06,49,14.80
2010,08,06,06,50,14.80
2010,08,06,06,51,14.80
2010,08,06,06,52,14.80
2010,08,06,06,53,14.80
2010,08,06,06,54,14.80
2010,08,06,06,55,14.80
2010,08,06,06,56,14.80
2010,08,06,06,57,14.80
2010,08,06,06,58,14.80
2010,08,06,06,59,14.90
2010,08,06,07,00,14.90
2010,08,06,07,01,14.90
2010,08,06,07,02,14.90
2010,08,06,07,03,14.90
2010,08,06,07,04,14.90
2010,08,06,07,05,15.00
2010,08,06,07,06,15.00
2010,08,06,07,07,15.00
2010,08,06,07,08,15.00
2010,08,06,07,09,15.00
2010,08,06,07,10,15.10
2010,08,06,07,11,15.10
2010,08,06,07,12,15.10
2010,08,06,07,13,15.10
2010,08,06,07,14,15.20
2010,08,06,07,15,15.20
2010,08,06,07,16,15.20
2010,08,06,07,17,15.20
2010,08,06,07,18,15.20
2010,08,06,07,19,15.30
2010,08,06,07,20,15.30
2010,08,06,07,21,15.30
2010,08,06,07,22,15.30
2010,08,06,07,23,15.30
2010,08,06,07,24,15.40
2010,08,06,07,25,15.40
2010,08,06,07,26,15.40
2010,08,06,07,27,15.40
2010,08,06,07,28,15.50
2010,08,06,07,29,15.50
2010,08,06,07,30,15.50
2010,08,06,07,31,15.50
2010,08,06,07,32,15.60
2010,08,06,07,33,15.60
2010,08,06,07,34,15.60
2010,08,06,07,35,15.70
2010,08,06,07,36,15.70
2010,08,06,07,37,15.70
2010,08,06,07,38,15.70
2010,08,06,07,39,15.70
2010,08,06,07,40,15.80
2010,08,06,07,41,15.80
2010,08,06,07,42,15.80
2010,08,06,07,43,15.80
2010,08,06,07,44,15.80
2010,08,06,07,45,15.80
2010,08,06,07,46,15.80
2010,08,06,07,47,15.80
2010,08,06,07,48,15.80
2010,08,06,07,49,15.80
2010,08,06,07,50,15.80
2010,08,06,07,51,15.80
2010,08,06,07,52,15.90
2010,08,06,07,53,15.90
2010,08,06,07,54,15.90
2010,08,06,07,55,15.90
2010,08,06,07,56,16.00
2010,08,06,07,57,16.10
2010,08,06,07,58,16.10
2010,08,06,07,59,16.10
2010,08,06,08,00,16.10
2010,08,06,08,01,16.10
2010,08,06,08,02,16.10
2010,08,06,08,03,16.10
2010,08,06,08,04,16.10
2010,08,06,08,05,16.10
2010,08,06,08,06,16.10
2010,08,06,08,07,16.20
2010,08,06,08,08,16.20
2010,08,06,08,09,16.20
2010,08,06,08,10,16.20
2010,08,06,08,11,16.20
2010,08,06,08,12,16.30
2010,08,06,08,13,16.30
2010,08,06,08,14,16.30
2010,08,06,08,15,16.40
2010,08,06,08,16,16.40
2010,08,06,08,17,16.40
2010,08,06,08,18,16.50
2010,08,06,08,19,16.60
2010,08,06,08,20,16.70
2010,08,06,08,21,16.70
2010,08,06,08,22,16.80
2010,08,06,08,23,16.90
2010,08,06,08,24,17.00
2010,08,06,08,25,17.00
2010,08,06,08,26,17.10
2010,08,06,08,27,17.20
2010,08,06,08,28,17.30
2010,08,06,08,29,17.40
2010,08,06,08,30,17.40
2010,08,06,08,31,17.50
2010,08,06,08,32,17.60
2010,08,06,08,33,17.70
2010,08,06,08,34,17.80
2010,08,06,08,35,17.90
2010,08,06,08,36,17.90
2010,08,06,08,37,18.00
2010,08,06,08,38,18.10
2010,08,06,08,39,18.20
2010,08,06,08,40,18.20
2010,08,06,08,41,18.20
2010,08,06,08,42,18.30
2010,08,06,08,43,18.40
2010,08,06,08,44,18.40
2010,08,06,08,45,18.50
2010,08,06,08,46,18.60
2010,08,06,08,47,18.60
2010,08,06,08,48,18.70
2010,08,06,08,49,18.80
2010,08,06,08,50,18.80
2010,08,06,08,51,18.90
2010,08,06,08,52,18.90
2010,08,06,08,53,18.90
2010,08,06,08,54,18.90
2010,08,06,08,55,19.10
2010,08,06,08,56,19.10
2010,08,06,08,57,19.20
2010,08,06,08,58,19.30
2010,08,06,08,59,19.30
2010,08,06,09,00,19.30
2010,08,06,09,01,19.30
2010,08,06,09,02,19.30
2010,08,06,09,03,19.30
2010,08,06,09,04,19.30
2010,08,06,09,05,19.30
2010,08,06,09,06,19.30
2010,08,06,09,07,19.30
2010,08,06,09,08,19.40
2010,08,06,09,09,19.50
2010,08,06,09,10,19.50
2010,08,06,09,11,19.60
2010,08,06,09,12,19.60
2010,08,06,09,13,19.70
2010,08,06,09,14,19.80
2010,08,06,09,15,19.80
2010,08,06,09,16,19.90
2010,08,06,09,17,19.90
2010,08,06,09,18,19.90
2010,08,06,09,19,20.00
2010,08,06,09,20,20.10
2010,08,06,09,21,20.10
2010,08,06,09,22,20.10
2010,08,06,09,23,20.20
2010,08,06,09,24,20.20
2010,08,06,09,25,20.20
2010,08,06,09,26,20.20
2010,08,06,09,27,20.20
2010,08,06,09,28,20.20
2010,08,06,09,29,20.30
2010,08,06,09,30,20.30
2010,08,06,09,31,20.40
2010,08,06,09,32,20.40
2010,08,06,09,33,20.40
2010,08,06,09,34,20.40
2010,08,06,09,35,20.50
2010,08,06,09,36,20.50
2010,08,06,09,37,20.60
2010,08,06,09,38,20.60
2010,08,06,09,39,20.60
2010,08,06,09,40,20.70
2010,08,06,09,41,20.70
2010,08,06,09,42,20.70
2010,08,06,09,43,20.70
2010,08,06,09,44,20.80
2010,08,06,09,45,20.80
2010,08,06,09,46,20.90
2010,08,06,09,47,21.00
2010,08,06,09,48,21.00
2010,08,06,09,49,21.10
2010,08,06,09,50,21.10
2010,08,06,09,51,21.20
2010,08,06,09,52,21.20
2010,08,06,09,53,21.20
2010,08,06,09,54,21.20
2010,08,06,09,55,21.10
2010,08,06,09,56,21.10
2010,08,06,09,57,21.10
2010,08,06,09,58,21.10
2010,08,06,09,59,21.10
2010,08,06,10,00,21.10
2010,08,06,10,01,21.10
2010,08,06,10,02,21.10
2010,08,06,10,03,21.10
2010,08,06,10,04,21.00
2010,08,06,10,05,21.00
2010,08,06,10,06,21.00
2010,08,06,10,07,21.00
2010,08,06,10,08,21.00
2010,08,06,10,09,20.90
2010,08,06,10,10,20.90
2010,08,06,10,11,20.90
2010,08,06,10,12,20.90
2010,08,06,10,13,20.80
2010,08,06,10,14,20.80
2010,08,06,10,15,20.80
2010,08,06,10,16,20.80
2010,08,06,10,17,20.90
2010,08,06,10,18,20.90
2010,08,06,10,19,20.90
2010,08,06,10,20,20.90
2010,08,06,10,21,20.90
2010,08,06,10,22,20.90
2010,08,06,10,23,20.90
2010,08,06,10,24,21.00
2010,08,06,10,25,21.00
2010,08,06,10,26,21.10
2010,08,06,10,27,21.10
2010,08,06,10,28,21.20
2010,08,06,10,29,21.20
2010,08,06,10,30,21.30
2010,08,06,10,31,21.30
2010,08,06,10,32,21.40
2010,08,06,10,33,21.40
2010,08,06,10,34,21.60
2010,08,06,10,35,21.60
2010,08,06,10,36,21.60
2010,08,06,10,37,21.60
2010,08,06,10,38,21.60
2010,08,06,10,39,21.60
2010,08,06,10,40,21.70
2010,08,06,10,41,21.70
2010,08,06,10,42,21.80
2010,08,06,10,43,21.90
2010,08,06,10,44,21.90
2010,08,06,10,45,21.90
2010,08,06,10,46,22.00
2010,08,06,10,47,22.00
2010,08,06,10,48,22.00
2010,08,06,10,49,22.10
2010,08,06,10,50,22.10
2010,08,06,10,51,22.20
2010,08,06,10,52,22.20
2010,08,06,10,53,22.30
2010,08,06,10,54,22.30
2010,08,06,10,55,22.40
2010,08,06,10,56,22.40
2010,08,06,10,57,22.50
2010,08,06,10,58,22.50
2010,08,06,10,59,22.50
2010,08,06,11,00,22.50
2010,08,06,11,01,22.40
2010,08,06,11,02,22.40
2010,08,06,11,03,22.40
2010,08,06,11,04,22.30
2010,08,06,11,05,22.30
2010,08,06,11,06,22.20
2010,08,06,11,07,22.10
2010,08,06,11,08,22.10
2010,08,06,11,09,22.10
2010,08,06,11,10,22.10
2010,08,06,11,11,22.10
2010,08,06,11,12,22.20
2010,08,06,11,13,22.20
2010,08,06,11,14,22.20
2010,08,06,11,15,22.30
2010,08,06,11,16,22.30
2010,08,06,11,17,22.30
2010,08,06,11,18,22.30
2010,08,06,11,19,22.30
2010,08,06,11,20,22.20
2010,08,06,11,21,22.20
2010,08,06,11,22,22.20
2010,08,06,11,23,22.20
2010,08,06,11,24,22.30
2010,08,06,11,25,22.30
2010,08,06,11,26,22.50
2010,08,06,11,27,22.60
2010,08,06,11,28,22.70
2010,08,06,11,29,22.80
2010,08,06,11,30,22.80
2010,08,06,11,31,22.90
2010,08,06,11,32,22.90
2010,08,06,11,33,22.90
2010,08,06,11,34,22.80
2010,08,06,11,35,22.80
2010,08,06,11,36,22.80
2010,08,06,11,37,22.80
2010,08,06,11,38,22.90
2010,08,06,11,39,22.90
2010,08,06,11,40,22.90
2010,08,06,11,41,22.90
2010,08,06,11,42,22.90
2010,08,06,11,43,23.00
2010,08,06,11,44,23.10
2010,08,06,11,45,23.10
2010,08,06,11,46,23.10
2010,08,06,11,47,23.10
2010,08,06,11,48,23.20
2010,08,06,11,49,23.10
2010,08,06,11,50,23.10
2010,08,06,11,51,23.10
2010,08,06,11,52,23.10
2010,08,06,11,53,23.00
2010,08,06,11,54,22.90
2010,08,06,11,55,22.90
2010,08,06,11,56,22.90
2010,08,06,11,57,22.90
2010,08,06,11,58,23.00
2010,08,06,11,59,23.20
2010,08,06,12,00,23.30
2010,08,06,12,01,23.20
2010,08,06,12,02,23.00
2010,08,06,12,03,22.90
2010,08,06,12,04,22.90
2010,08,06,12,05,22.90
2010,08,06,12,06,22.90
2010,08,06,12,07,22.90
2010,08,06,12,08,23.00
2010,08,06,12,09,23.00
2010,08,06,12,10,23.10
2010,08,06,12,11,23.10
2010,08,06,12,12,23.10
2010,08,06,12,13,23.00
2010,08,06,12,14,22.90
2010,08,06,12,15,22.90
2010,08,06,12,16,22.90
2010,08,06,12,17,22.90
2010,08,06,12,18,22.90
2010,08,06,12,19,22.90
2010,08,06,12,20,23.10
2010,08,06,12,21,23.10
2010,08,06,12,22,23.10
2010,08,06,12,23,23.20
2010,08,06,12,24,23.30
2010,08,06,12,25,23.30
2010,08,06,12,26,23.30
2010,08,06,12,27,23.30
2010,08,06,12,28,23.40
2010,08,06,12,29,23.30
2010,08,06,12,30,23.30
2010,08,06,12,31,23.20
2010,08,06,12,32,23.10
2010,08,06,12,33,23.10
2010,08,06,12,34,23.10
2010,08,06,12,35,23.20
2010,08,06,12,36,23.20
2010,08,06,12,37,23.30
2010,08,06,12,38,23.30
2010,08,06,12,39,23.30
2010,08,06,12,40,23.30
2010,08,06,12,41,23.30
2010,08,06,12,42,23.30
2010,08,06,12,43,23.30
2010,08,06,12,44,23.30
2010,08,06,12,45,23.20
2010,08,06,12,46,23.20
2010,08,06,12,47,23.20
2010,08,06,12,48,23.20
2010,08,06,12,49,23.30
2010,08,06,12,50,23.30
2010,08,06,12,51,23.50
2010,08,06,12,52,23.60
2010,08,06,12,53,23.70
2010,08,06,12,54,23.70
2010,08,06,12,55,23.80
2010,08,06,12,56,23.80
2010,08,06,12,57,23.80
2010,08,06,12,58,23.80
2010,08,06,12,59,23.90
2010,08,06,13,00,24.00
2010,08,06,13,01,24.10
2010,08,06,13,02,24.00
2010,08,06,13,03,23.90
2010,08,06,13,04,23.80
2010,08,06,13,05,23.80
2010,08,06,13,06,23.80
2010,08,06,13,07,23.80
2010,08,06,13,08,23.80
2010,08,06,13,09,23.80
2010,08,06,13,10,23.80
2010,08,06,13,11,23.90
2010,08,06,13,12,24.00
2010,08,06,13,13,24.10
2010,08,06,13,14,24.10
2010,08,06,13,15,24.10
2010,08,06,13,16,24.10
2010,08,06,13,17,24.10
2010,08,06,13,18,24.10
2010,08,06,13,19,24.10
2010,08,06,13,20,24.00
2010,08,06,13,21,24.00
2010,08,06,13,22,24.10
2010,08,06,13,23,24.10
2010,08,06,13,24,24.10
2010,08,06,13,25,24.10
2010,08,06,13,26,24.10
2010,08,06,13,27,24.10
2010,08,06,13,28,24.10
2010,08,06,13,29,24.20
2010,08,06,13,30,24.20
2010,08,06,13,31,24.20
2010,08,06,13,32,24.20
2010,08,06,13,33,24.20
2010,08,06,13,34,24.20
2010,08,06,13,35,24.10
2010,08,06,13,36,24.10
2010,08,06,13,37,24.10
2010,08,06,13,38,24.10
2010,08,06,13,39,24.10
2010,08,06,13,40,24.20
2010,08,06,13,41,24.10
2010,08,06,13,42,24.10
2010,08,06,13,43,24.10
2010,08,06,13,44,24.10
2010,08,06,13,45,24.10
2010,08,06,13,46,24.10
2010,08,06,13,47,24.10
2010,08,06,13,48,24.10
2010,08,06,13,49,24.10
2010,08,06,13,50,24.20
2010,08,06,13,51,24.20
2010,08,06,13,52,24.30
2010,08,06,13,53,24.30
2010,08,06,13,54,24.20
2010,08,06,13,55,24.20
2010,08,06,13,56,24.20
2010,08,06,13,57,24.20
2010,08,06,13,58,24.30
2010,08,06,13,59,24.40
2010,08,06,14,00,24.40
2010,08,06,14,01,24.40
2010,08,06,14,02,24.40
2010,08,06,14,03,24.30
2010,08,06,14,04,24.20
2010,08,06,14,05,24.10
2010,08,06,14,06,24.20
2010,08,06,14,07,24.10
2010,08,06,14,08,24.10
2010,08,06,14,09,24.10
2010,08,06,14,10,24.10
2010,08,06,14,11,24.10
2010,08,06,14,12,24.10
2010,08,06,14,13,24.00
2010,08,06,14,14,23.90
2010,08,06,14,15,23.90
2010,08,06,14,16,23.90
2010,08,06,14,17,23.90
2010,08,06,14,18,23.90
2010,08,06,14,19,24.10
2010,08,06,14,20,24.10
2010,08,06,14,21,24.20
2010,08,06,14,22,24.20
2010,08,06,14,23,24.30
2010,08,06,14,24,24.20
2010,08,06,14,25,24.20
2010,08,06,14,26,24.10
2010,08,06,14,27,24.10
2010,08,06,14,28,24.10
2010,08,06,14,29,24.10
2010,08,06,14,30,24.00
2010,08,06,14,31,23.90
2010,08,06,14,32,24.10
2010,08,06,14,33,24.10
2010,08,06,14,34,24.20
2010,08,06,14,35,24.30
2010,08,06,14,36,24.50
2010,08,06,14,37,24.60
2010,08,06,14,38,24.80
2010,08,06,14,39,24.80
2010,08,06,14,40,24.90
2010,08,06,14,41,24.90
2010,08,06,14,42,24.90
2010,08,06,14,43,25.00
2010,08,06,14,44,25.10
2010,08,06,14,45,25.00
2010,08,06,14,46,25.00
2010,08,06,14,47,25.00
2010,08,06,14,48,25.00
2010,08,06,14,49,25.10
2010,08,06,14,50,25.10
2010,08,06,14,51,25.10
2010,08,06,14,52,25.10
2010,08,06,14,53,25.10
2010,08,06,14,54,25.10
2010,08,06,14,55,25.10
2010,08,06,14,56,25.10
2010,08,06,14,57,24.90
2010,08,06,14,58,24.90
2010,08,06,14,59,24.90
2010,08,06,15,00,24.90
2010,08,06,15,01,24.90
2010,08,06,15,02,24.90
2010,08,06,15,03,24.80
2010,08,06,15,04,24.80
2010,08,06,15,05,24.90
2010,08,06,15,06,24.90
2010,08,06,15,07,24.90
2010,08,06,15,08,24.90
2010,08,06,15,09,25.00
2010,08,06,15,10,25.20
2010,08,06,15,11,25.30
2010,08,06,15,12,25.40
2010,08,06,15,13,25.40
2010,08,06,15,14,25.40
2010,08,06,15,15,25.40
2010,08,06,15,16,25.40
2010,08,06,15,17,25.40
2010,08,06,15,18,25.40
2010,08,06,15,19,25.40
2010,08,06,15,20,25.40
2010,08,06,15,21,25.30
2010,08,06,15,22,25.30
2010,08,06,15,23,25.30
2010,08,06,15,24,25.30
2010,08,06,15,25,25.20
2010,08,06,15,26,25.30
2010,08,06,15,27,25.20
2010,08,06,15,28,25.20
2010,08,06,15,29,25.00
2010,08,06,15,30,25.00
2010,08,06,15,31,24.90
2010,08,06,15,32,24.80
2010,08,06,15,33,24.70
2010,08,06,15,34,24.60
2010,08,06,15,35,24.50
2010,08,06,15,36,24.50
2010,08,06,15,37,24.40
2010,08,06,15,38,24.40
2010,08,06,15,39,24.40
2010,08,06,15,40,24.40
2010,08,06,15,41,24.50
2010,08,06,15,42,24.50
2010,08,06,15,43,24.50
2010,08,06,15,44,24.50
2010,08,06,15,45,24.50
2010,08,06,15,46,24.50
2010,08,06,15,47,24.50
2010,08,06,15,48,24.60
2010,08,06,15,49,24.60
2010,08,06,15,50,24.50
2010,08,06,15,51,24.50
2010,08,06,15,52,24.40
2010,08,06,15,53,24.40
2010,08,06,15,54,24.40
2010,08,06,15,55,24.40
2010,08,06,15,56,24.40
2010,08,06,15,57,24.40
2010,08,06,15,58,24.40
2010,08,06,15,59,24.30
2010,08,06,16,00,24.30
2010,08,06,16,01,24.20
2010,08,06,16,02,24.20
2010,08,06,16,03,24.10
2010,08,06,16,04,24.10
2010,08,06,16,05,24.10
2010,08,06,16,06,24.10
2010,08,06,16,07,24.10
2010,08,06,16,08,24.10
2010,08,06,16,09,24.10
2010,08,06,16,10,24.10
2010,08,06,16,11,24.10
2010,08,06,16,12,24.10
2010,08,06,16,13,24.10
2010,08,06,16,14,23.90
2010,08,06,16,15,23.90
2010,08,06,16,16,23.90
2010,08,06,16,17,23.90
2010,08,06,16,18,23.90
2010,08,06,16,19,23.80
2010,08,06,16,20,23.80
2010,08,06,16,21,23.80
2010,08,06,16,22,23.70
2010,08,06,16,23,23.70
2010,08,06,16,24,23.70
2010,08,06,16,25,23.70
2010,08,06,16,26,23.70
2010,08,06,16,27,23.70
2010,08,06,16,28,23.70
2010,08,06,16,29,23.60
2010,08,06,16,30,23.60
2010,08,06,16,31,23.40
2010,08,06,16,32,23.40
2010,08,06,16,33,23.30
2010,08,06,16,34,23.30
2010,08,06,16,35,23.30
2010,08,06,16,36,23.20
2010,08,06,16,37,23.20
2010,08,06,16,38,23.10
2010,08,06,16,39,23.00
2010,08,06,16,40,22.90
2010,08,06,16,41,22.90
2010,08,06,16,42,22.90
2010,08,06,16,43,22.90
2010,08,06,16,44,22.90
2010,08,06,16,45,22.90
2010,08,06,16,46,22.90
2010,08,06,16,47,22.90
2010,08,06,16,48,22.90
2010,08,06,16,49,22.90
2010,08,06,16,50,22.90
2010,08,06,16,51,22.90
2010,08,06,16,52,22.90
2010,08,06,16,53,22.90
2010,08,06,16,54,23.00
2010,08,06,16,55,23.10
2010,08,06,16,56,23.10
2010,08,06,16,57,23.10
2010,08,06,16,58,23.10
2010,08,06,16,59,23.10
2010,08,06,17,00,23.20
2010,08,06,17,01,23.20
2010,08,06,17,02,23.30
2010,08,06,17,03,23.30
2010,08,06,17,04,23.30
2010,08,06,17,05,23.30
2010,08,06,17,06,23.30
2010,08,06,17,07,23.30
2010,08,06,17,08,23.20
2010,08,06,17,09,23.10
2010,08,06,17,10,23.10
2010,08,06,17,11,23.00
2010,08,06,17,12,22.90
2010,08,06,17,13,22.90
2010,08,06,17,14,22.90
2010,08,06,17,15,22.90
2010,08,06,17,16,22.80
2010,08,06,17,17,22.80
2010,08,06,17,18,22.80
2010,08,06,17,19,22.80